Location: Dattensoll
(49.9928°N, 9.8954°E)
Time: 16:20:25
(UTC+00:00)

Tiangong - Visible Passes

Search period start: 20 January 2026 00:00
Search period end: 30 January 2026 00:00
Orbit: 378 x 393 km, 41.5° (Epoch: 20 January)

Date Brightness Start Highest point End Pass type
(mag) Time Alt. Az. Time Alt. Az. Time Alt. Az.
20 Jan 0.9 04:52:28 10° SSE 04:52:57 10° SSE 04:53:26 10° SSE visible
20 Jan 0.4 06:26:48 10° SW 06:29:03 18° S 06:31:18 10° SE visible
21 Jan 0.4 05:27:48 10° SSW 05:29:51 16° S 05:31:55 10° SE visible
22 Jan 0.7 04:31:12 13° SSE 04:31:12 13° SSE 04:32:16 10° SE visible
22 Jan 0.3 06:04:32 10° SW 06:06:47 18° S 06:09:03 10° SE visible
23 Jan 0.1 05:06:47 17° SSW 05:07:28 18° S 05:09:42 10° SE visible
24 Jan 1.2 04:10:02 11° SE 04:10:02 11° SE 04:10:10 10° SE visible
24 Jan 0.2 05:42:15 10° SW 05:44:17 17° S 05:46:25 10° SE visible
25 Jan 0.2 04:45:26 17° SSE 04:45:26 17° SSE 04:47:06 10° SE visible
25 Jan 0.5 06:19:56 10° SW 06:20:58 11° SSW 06:22:01 10° S visible
26 Jan 0.2 05:20:47 13° SSW 05:21:32 14° SSW 05:23:19 10° SSE visible
27 Jan 0.9 04:23:52 11° SSE 04:23:52 11° SSE 04:24:07 10° SSE visible
28 Jan 0.6 04:59:08 11° S 04:59:08 11° S 04:59:29 10° S visible
